Latest Weather Observations for Darwin

IDD60901

Issued at 11:35 pm CST Friday 1 August 2014 (issued every 10 minutes, with the page automatically refreshed every 10 minutes)

About weather observations | Map of Darwin area stations | Latest observations for Darwin area | Other Formats
Station Details ID: 014015 Name: DARWIN AIRPORT Lat: -12.42 Lon: 130.89 Height: 30.4 m
Data from the previous 72 hours. | See also: Recent months at Darwin
Date/Time
CST
Tmp

°C
App
Tmp
°C
Dew
Point
°C
Rel
Hum
%
Delta-T

°C
Wind Press
QNH
hPa
Press
MSL
hPa
Rain
since
9 am
mm
Dir
 
Spd
km/h
Gust
km/h
Spd
kts
Gust
kts
01/11:30pm 24.1 25.5 19.6 76 2.9 E 11 13 6 7 1014.5 - 0.0
01/11:00pm 23.5 24.8 19.3 77 2.7 ENE 11 13 6 7 1014.3 - 0.0
01/10:30pm 23.5 25.3 19.6 79 2.5 E 9 11 5 6 1014.1 - 0.0
01/10:00pm 24.1 26.4 19.9 77 2.7 ESE 7 9 4 5 1013.9 - 0.0
01/09:30pm 24.7 27.1 20.1 75 3.0 SSE 7 7 4 4 1013.7 - 0.0
01/09:00pm 26.0 28.3 19.8 68 4.0 S 7 9 4 5 1013.5 1013.3 0.0
01/08:30pm 26.2 28.4 19.7 67 4.2 S 7 9 4 5 1013.2 - 0.0
01/08:00pm 26.1 27.5 20.3 70 3.8 NNE 13 17 7 9 1012.6 - 0.0
01/07:30pm 26.5 26.9 19.9 67 4.3 NNE 17 24 9 13 1011.9 - 0.0
01/07:00pm 27.0 27.0 19.8 64 4.7 NNE 19 28 10 15 1011.5 - 0.0
01/06:30pm 27.6 27.7 20.0 63 5.0 NNE 19 28 10 15 1011.2 - 0.0
01/06:00pm 28.9 28.5 19.4 56 6.2 N 20 28 11 15 1010.9 1010.7 0.0
01/05:30pm 29.8 29.5 19.6 54 6.7 N 20 26 11 14 1010.7 - 0.0
01/05:00pm 30.4 29.7 19.4 51 7.2 NNE 22 30 12 16 1010.5 - 0.0
01/04:30pm 31.6 30.4 17.5 43 9.0 NNE 20 28 11 15 1010.5 - 0.0
01/04:00pm 31.8 31.2 17.6 42 9.1 NNE 17 22 9 12 1010.3 - 0.0
01/03:30pm 31.9 29.6 17.7 42 9.1 NE 26 35 14 19 1010.5 - 0.0
01/03:00pm 31.2 29.6 19.3 49 7.8 N 26 33 14 18 1010.8 1010.6 0.0
01/02:30pm 30.2 29.2 20.4 55 6.5 N 26 35 14 19 1011.4 - 0.0
01/02:00pm 30.5 29.6 20.6 55 6.6 N 26 32 14 17 1012.1 - 0.0
01/01:30pm 30.4 29.8 20.4 55 6.6 N 24 33 13 18 1013.0 - 0.0
01/01:00pm 30.8 29.6 20.0 52 7.1 N 26 32 14 17 1013.5 - 0.0
01/12:30pm 29.3 29.4 20.4 58 5.9 N 20 28 11 15 1014.1 - 0.0
01/12:00pm 29.4 30.0 18.5 52 7.0 E 13 26 7 14 1014.6 1014.4 0.0
01/11:30am 29.4 29.9 20.0 57 6.2 ENE 17 28 9 15 1015.0 - 0.0
01/11:00am 29.0 30.3 20.2 59 5.8 E 13 20 7 11 1015.5 - 0.0
01/10:30am 27.8 29.0 20.7 65 4.7 ENE 15 24 8 13 1015.8 - 0.0
01/10:00am 26.8 28.6 21.1 71 3.8 NE 13 19 7 10 1015.8 - 0.0
01/09:30am 26.5 29.3 21.5 74 3.3 ENE 9 13 5 7 1015.7 - 0.0
01/09:00am 25.5 28.2 21.4 78 2.7 E 9 11 5 6 1015.4 1015.2 0.0
01/08:30am 25.0 28.1 21.4 80 2.4 SSW 7 9 4 5 1015.3 - 0.0
01/08:00am 23.4 26.2 20.8 85 1.7 SSW 7 9 4 5 1015.2 - 0.0
01/07:30am 21.8 24.3 20.2 91 1.0 SSW 7 9 4 5 1014.9 - 0.0
01/07:00am 21.6 23.7 20.2 92 0.9 SSW 9 13 5 7 1014.8 - 0.0
01/06:30am 21.6 23.3 20.2 92 0.9 SSW 11 13 6 7 1014.5 - 0.0
01/06:00am 21.9 24.0 20.2 90 1.1 SSW 9 11 5 6 1014.4 1014.2 0.0
01/05:30am 21.5 23.1 19.9 91 1.0 SSW 11 13 6 7 1014.3 - 0.0
01/05:00am 20.8 22.9 19.4 92 0.9 SSW 7 9 4 5 1014.0 - 0.0
01/04:30am 21.1 23.3 19.5 90 1.0 SSW 7 7 4 4 1013.7 - 0.0
01/04:00am 21.3 23.2 19.7 91 1.0 SSW 9 11 5 6 1013.8 - 0.0
01/03:30am 20.9 23.1 19.6 92 0.8 SSW 7 9 4 5 1013.7 - 0.0
01/03:00am 21.2 23.7 19.8 92 0.9 SSW 6 7 3 4 1013.7 1013.5 0.0
01/02:30am 21.3 24.1 19.6 90 1.1 SSW 4 7 2 4 1013.8 - 0.0
01/02:00am 21.5 23.8 19.8 90 1.1 SSW 7 7 4 4 1014.0 - 0.0
01/01:30am 21.4 23.7 19.8 91 1.0 SSW 7 9 4 5 1014.1 - 0.0
01/01:00am 21.5 25.0 19.5 88 1.3 CALM 0 0 0 0 1014.2 - 0.0
01/12:30am 21.6 24.9 19.1 86 1.6 CALM 0 0 0 0 1014.2 - 0.0
01/12:00am 21.9 24.3 18.9 83 1.9 SSW 4 6 2 3 1013.9 1013.7 0.0
 
Date/Time
CST
Tmp

°C
App
Tmp
°C
Dew
Point
°C
Rel
Hum
%
Delta-T

°C
Wind Press
QNH
hPa
Press
MSL
hPa
Rain
since
9 am
mm
Dir
 
Spd
km/h
Gust
km/h
Spd
kts
Gust
kts
31/11:30pm 22.0 24.9 18.3 79 2.3 CALM 0 0 0 0 1014.0 - 0.0
31/11:00pm 22.8 24.6 18.3 76 2.8 SSW 6 9 3 5 1013.9 - 0.0
31/10:30pm 22.3 25.3 18.5 79 2.4 CALM 0 0 0 0 1013.8 - 0.0
31/10:00pm 23.0 26.1 18.6 76 2.8 CALM 0 0 0 0 1013.5 - 0.0
31/09:30pm 23.9 26.1 18.3 71 3.5 SSE 4 7 2 4 1013.3 - 0.0
31/09:00pm 24.4 26.1 18.4 69 3.8 SE 7 9 4 5 1012.9 1012.7 0.0
31/08:30pm 24.9 26.5 18.3 66 4.2 E 7 9 4 5 1012.8 - 0.0
31/08:00pm 25.5 27.0 18.9 67 4.2 NNE 9 13 5 7 1012.3 - 0.0
31/07:30pm 26.0 26.5 18.3 62 4.9 NNE 13 17 7 9 1012.1 - 0.0
31/07:00pm 26.4 26.2 18.4 61 5.1 NNE 17 24 9 13 1011.9 - 0.0
31/06:30pm 26.9 26.4 18.6 60 5.3 N 19 24 10 13 1011.9 - 0.0
31/06:00pm 27.8 27.4 18.1 55 6.2 N 17 22 9 12 1011.6 1011.4 0.0
31/05:30pm 28.7 27.4 17.3 50 7.2 N 20 20 11 11 1011.5 - 0.0
31/05:00pm 29.5 27.7 15.6 43 8.6 N 19 24 10 13 1011.4 - 0.0
31/04:30pm 29.2 27.0 16.8 47 7.8 N 24 30 13 16 1011.4 - 0.0
31/04:00pm 30.4 29.1 17.3 45 8.3 N 20 26 11 14 1011.3 - 0.0
31/03:30pm 29.9 28.2 18.0 48 7.6 N 24 26 13 14 1011.3 - 0.0
31/03:00pm 30.6 29.3 19.1 50 7.5 NW 24 30 13 16 1011.7 1011.5 0.0
31/02:30pm 32.7 29.9 12.6 29 12.0 WNW 19 28 10 15 1012.3 - 0.0
31/02:00pm 32.3 31.2 13.2 31 11.5 WSW 11 22 6 12 1012.9 - 0.0
31/01:30pm 31.7 30.2 14.3 34 10.6 E 15 26 8 14 1013.5 - 0.0
31/01:00pm 30.5 29.9 15.6 40 9.2 ESE 13 20 7 11 1014.0 - 0.0
31/12:30pm 30.8 29.3 16.2 41 9.1 E 19 32 10 17 1014.3 - 0.0
31/12:00pm 30.1 29.1 16.7 44 8.4 E 17 26 9 14 1015.0 1014.8 0.0
31/11:30am 29.0 27.5 17.8 50 7.1 ENE 22 28 12 15 1015.5 - 0.0
31/11:00am 28.2 27.7 19.1 57 5.9 E 20 30 11 16 1015.8 - 0.0
31/10:30am 27.3 27.0 19.1 61 5.3 E 19 26 10 14 1016.1 - 0.0
31/10:00am 27.2 27.7 19.3 62 5.1 ENE 15 26 8 14 1016.3 - 0.0
31/09:30am 27.0 28.6 20.8 69 4.1 ENE 13 22 7 12 1016.2 - 0.0
31/09:00am 25.9 28.2 21.4 76 3.0 ENE 11 15 6 8 1016.0 1015.8 0.0
31/08:30am 24.8 27.4 21.2 80 2.4 E 9 11 5 6 1015.8 - 0.0
31/08:00am 23.4 25.6 20.5 84 1.9 E 9 11 5 6 1015.7 - 0.0
31/07:30am 21.2 22.9 19.3 89 1.2 E 9 11 5 6 1015.6 - 0.0
31/07:00am 21.1 23.1 19.2 89 1.2 ENE 7 7 4 4 1015.2 - 0.0
31/06:30am 21.3 23.2 18.9 86 1.5 E 7 9 4 5 1015.1 - 0.0
31/06:00am 21.5 23.0 18.8 84 1.7 E 9 11 5 6 1014.9 1014.7 0.0
31/05:30am 22.1 24.0 18.9 82 2.0 E 7 9 4 5 1014.9 - 0.0
31/05:00am 22.3 25.5 18.8 80 2.2 CALM 0 0 0 0 1014.8 - 0.0
31/04:30am 23.3 25.3 18.7 75 2.9 SSE 6 7 3 4 1014.6 - 0.0
31/04:00am 23.4 25.0 18.3 73 3.2 SSE 7 9 4 5 1014.6 - 0.0
31/03:30am 21.7 23.2 19.0 84 1.7 E 9 9 5 5 1014.6 - 0.0
31/03:00am 21.2 22.9 18.6 85 1.6 ESE 7 7 4 4 1014.8 1014.6 0.0
31/02:30am 21.9 23.4 18.9 83 1.9 SE 9 11 5 6 1014.9 - 0.0
31/02:00am 21.9 23.4 18.9 83 1.9 SSE 9 11 5 6 1014.8 - 0.0
31/01:30am 23.4 25.0 19.2 77 2.7 S 9 11 5 6 1015.0 - 0.0
31/01:00am 22.2 25.2 18.4 79 2.4 CALM 0 0 0 0 1015.0 - 0.0
31/12:30am 22.3 24.5 18.3 78 2.5 SE 4 7 2 4 1015.1 - 0.0
31/12:00am 22.4 24.1 18.6 79 2.4 S 7 9 4 5 1015.0 1014.8 0.0
 
Date/Time
CST
Tmp

°C
App
Tmp
°C
Dew
Point
°C
Rel
Hum
%
Delta-T

°C
Wind Press
QNH
hPa
Press
MSL
hPa
Rain
since
9 am
mm
Dir
 
Spd
km/h
Gust
km/h
Spd
kts
Gust
kts
30/11:30pm 22.5 24.2 18.5 78 2.5 S 7 7 4 4 1014.9 - 0.0
30/11:00pm 24.2 25.8 18.3 69 3.7 S 7 9 4 5 1014.9 - 0.0
30/10:30pm 23.8 25.6 18.2 71 3.5 S 6 9 3 5 1014.9 - 0.0
30/10:00pm 24.2 25.9 18.0 68 3.9 S 6 7 3 4 1014.7 - 0.0
30/09:30pm 24.1 25.7 17.9 68 3.9 ESE 6 7 3 4 1014.5 - 0.0
30/09:00pm 24.5 25.9 17.8 66 4.2 E 7 9 4 5 1014.3 1014.1 0.0
30/08:30pm 25.1 26.0 17.6 63 4.7 NE 9 13 5 7 1014.2 - 0.0
30/08:00pm 25.4 24.7 17.4 61 5.0 NNE 17 26 9 14 1013.6 - 0.0
30/07:30pm 26.0 24.4 16.4 55 5.9 NE 20 26 11 14 1013.2 - 0.0
30/07:00pm 26.6 24.9 16.2 52 6.4 NE 20 26 11 14 1012.9 - 0.0
30/06:30pm 27.3 24.7 15.9 49 7.0 NNE 24 32 13 17 1012.6 - 0.0
30/06:00pm 28.2 24.9 16.1 47 7.5 NNE 28 35 15 19 1012.4 1012.2 0.0
30/05:30pm 28.8 25.3 16.4 47 7.7 NNE 30 41 16 22 1012.0 - 0.0
30/05:00pm 29.6 26.0 16.3 44 8.3 NNE 30 37 16 20 1011.9 - 0.0
30/04:30pm 30.1 27.2 16.1 42 8.7 NNE 26 33 14 18 1011.6 - 0.0
30/04:00pm 30.5 27.7 15.4 40 9.3 N 24 32 13 17 1011.7 - 0.0
30/03:30pm 33.1 29.4 7.9 21 14.0 NNE 17 24 9 13 1011.8 - 0.0
30/03:00pm 32.5 27.0 7.4 21 13.8 ESE 26 37 14 20 1012.1 1011.9 0.0
30/02:30pm 32.5 27.5 8.0 22 13.6 E 24 32 13 17 1012.6 - 0.0
30/02:00pm 32.3 26.6 8.5 23 13.3 ESE 28 43 15 23 1013.2 - 0.0
30/01:30pm 32.1 25.9 9.3 24 12.9 E 32 39 17 21 1013.6 - 0.0
30/01:00pm 31.7 26.3 9.4 25 12.6 E 28 39 15 21 1014.0 - 0.0
30/12:30pm 31.1 25.3 9.5 26 12.2 E 30 43 16 23 1014.5 - 0.0
30/12:00pm 30.4 25.7 10.7 29 11.3 SE 26 33 14 18 1015.1 1014.9 0.0
30/11:30am 30.0 24.9 11.8 32 10.6 E 30 37 16 20 1015.7 - 0.0
30/11:00am 29.4 24.1 11.4 32 10.4 ESE 30 39 16 21 1016.2 - 0.0
30/10:30am 28.7 24.1 12.4 36 9.5 E 28 35 15 19 1016.4 - 0.0
30/10:00am 28.2 24.7 14.4 42 8.3 E 26 32 14 17 1016.5 - 0.0
30/09:30am 26.8 25.4 16.6 53 6.3 ESE 19 28 10 15 1016.5 - 0.0
30/09:00am 24.8 25.9 19.7 73 3.3 SE 13 17 7 9 1016.6 1016.4 0.0
30/08:30am 23.3 24.9 19.9 81 2.2 SE 11 15 6 8 1016.5 - 0.0
30/08:00am 22.3 23.7 20.4 89 1.2 SE 13 15 7 8 1016.3 - 0.0
30/07:30am 21.3 23.0 20.2 93 0.7 SE 11 13 6 7 1015.8 - 0.0
30/07:00am 19.9 20.9 18.6 92 0.8 ESE 11 13 6 7 1015.5 - 0.0
30/06:33am 20.0 21.9 18.9 93 0.7 SE 7 9 4 5 1015.2 - 0.0
30/06:30am 20.0 21.5 18.9 93 0.7 SE 9 9 5 5 1015.2 - 0.0
30/06:00am 20.2 22.2 18.8 92 0.9 SE 6 6 3 3 1015.0 1014.8 0.0
30/05:30am 20.5 22.7 19.1 92 0.9 SE 6 7 3 4 1014.9 - 0.0
30/05:00am 20.7 22.7 19.1 90 1.0 SSE 7 7 4 4 1014.9 - 0.0
30/04:30am 21.1 23.2 19.0 88 1.3 SSE 6 7 3 4 1014.8 - 0.0
30/04:00am 21.6 23.6 19.1 86 1.6 S 7 7 4 4 1014.6 - 0.0
30/03:30am 22.3 24.5 19.5 84 1.8 S 7 9 4 5 1014.7 - 0.0
30/03:00am 22.1 24.2 19.4 85 1.7 SE 7 9 4 5 1014.8 1014.6 0.0
30/02:30am 22.6 24.9 19.8 84 1.8 ESE 7 7 4 4 1014.9 - 0.0
30/02:00am 21.9 23.5 19.2 85 1.7 E 9 11 5 6 1014.8 - 0.0
30/01:30am 22.7 24.4 19.4 81 2.1 E 9 11 5 6 1015.0 - 0.0
30/01:00am 23.2 25.0 19.6 80 2.3 E 9 11 5 6 1015.2 - 0.0
30/12:30am 23.6 25.0 19.5 78 2.6 E 11 13 6 7 1015.3 - 0.0
30/12:00am 23.7 25.1 19.5 77 2.7 E 11 15 6 8 1015.2 1015.0 0.0

Latest Capital City Observations: Canberra | Sydney | Melbourne | Brisbane | Adelaide | Perth | Hobart | Darwin

Other Formats:

Comma delimited format used in spreadsheet applications
http://www.bom.gov.au/fwo/IDD60901/IDD60901.94120.axf

JavaScript Object Notation format (JSON) in row-major order
http://www.bom.gov.au/fwo/IDD60901/IDD60901.94120.json